CAPE
1 0 0 0 0 2 2 0 2 0 2 0 0 0 0 0 0 0 0 0 0 0 0 0 0 0 0 16 0 2 14 0 77 161 172 299 218 240 455 683 1174 1457 915 1083 1322 1743 2217 2412 2450 2357 2244 2166 2159 2207 1997 1827 1712 1703 1723 1700 1690 1722 1719 1783 1908 1930 1953 1819 1633 1566 1658 1599 1493 1490 1503 1506 1372 1368 1327 1203 1175 1132 1075 1130 1034 829 735
0 0 0 5 1 1 0 0 0 0 0 0 0 0 0 0 0 0 0 0 0 3 1 0 0 0 0 14 0 5 66 122 242 340 87 61 167 283 444 576 1340 1521 1194 1035 1500 1788 2188 2302 2360 2251 2200 2236 2270 2070 1884 1821 1669 1698 1632 1668 1638 1685 1642 1695 1777 1846 1898 1745 1528 1516 1587 1642 1571 1500 1524 1500 1370 1346 1321 1201 1181 1125 1057 1106 970 782 695
0 0 4 3 4 0 1 0 1 0 0 0 0 0 1 0 0 0 0 5 1 0 0 0 12 192 2 19 10 62 119 192 315 378 295 210 228 268 297 378 830 1556 1338 1041 1430 1854 2106 2266 2343 2295 2177 2338 2307 2219 1933 1738 1701 1638 1554 1574 1630 1578 1598 1615 1704 1751 1852 1746 1454 1362 1556 1658 1639 1556 1538 1484 1294 1283 1274 1174 1159 1116 1038 1054 917 740 646
0 1 6 0 2 1 0 1 1 2 2 1 1 0 3 0 0 0 0 0 0 0 136 397 500 445 380 427 425 183 532 326 299 317 349 323 258 279 246 238 324 1243 1484 1129 1360 1767 2057 2279 2394 2386 2345 2375 2302 2150 2101 1863 1700 1632 1598 1571 1587 1575 1531 1511 1514 1652 1768 1584 1370 1292 1478 1684 1666 1574 1624 1478 1309 1180 1165 1100 1133 1048 1063 1088 875 682 534
3 3 2 0 0 2 2 2 4 14 35 7 1 0 0 0 0 0 0 0 0 5 320 314 298 506 761 796 627 712 702 630 326 292 252 238 238 347 452 321 191 453 1416 1387 1370 1631 2004 2302 2383 2396 2384 2355 2315 2221 2130 2076 1945 1682 1578 1556 1558 1554 1516 1412 1420 1492 1535 1434 1256 1203 1379 1601 1601 1537 1658 1570 1337 1108 1017 1034 1062 965 1052 932 787 561 560
3 2 4 0 1 1 1 14 1 0 6 11 6 11 28 30 1 0 0 0 68 246 285 224 316 363 439 527 569 527 587 504 426 161 110 418 592 666 636 469 261 267 957 1498 1431 1636 2021 2330 2321 2434 2444 2449 2290 2266 2224 2028 1863 1630 1591 1565 1532 1508 1432 1441 1420 1347 1360 1381 1213 1134 1215 1480 1526 1459 1597 1630 1435 1257 1053 942 912 982 891 701 573 518 628
1 1 3 17 15 6 3 6 17 11 1 3 8 8 6 2 3 37 47 74 227 236 193 152 65 189 280 480 515 570 629 615 510 130 326 744 847 756 603 466 329 215 476 1454 1612 1740 1999 2217 2344 2368 2341 2361 2397 2290 2031 1898 1843 1638 1588 1524 1476 1434 1433 1405 1346 1293 1252 1363 1285 1140 1130 1323 1358 1332 1438 1521 1508 1404 1181 934 970 989 812 688 419 532 644
1 2 2 14 17 5 3 2 2 10 6 3 0 0 2 13 46 32 15 17 21 40 30 50 26 230 279 408 467 616 583 484 435 28 743 908 793 750 609 584 465 234 406 1216 1714 1831 1940 2125 2191 2264 2374 2286 2253 2208 2005 1925 1763 1614 1598 1501 1427 1394 1374 1348 1314 1291 1254 1311 1267 1147 1154 1222 1188 1262 1282 1401 1385 1164 936 947 1048 948 623 612 419 561 649
7 3 4 6 0 5 5 0 3 16 2 5 3 5 18 17 10 18 19 4 5 16 1 1 77 283 332 398 529 703 412 81 79 470 797 882 833 831 681 692 606 321 432 1323 1687 1944 2031 2101 2145 2268 2348 2280 2262 2190 2074 1978 1831 1600 1566 1534 1469 1376 1351 1338 1323 1296 1257 1221 1250 1128 1146 1056 1055 1299 1261 1070 1044 862 1010 1139 1036 814 704 596 432 495 426
4 13 2 14 0 10 5 0 1 2 7 8 11 1 1 16 14 44 19 29 12 9 54 57 4 107 103 526 533 281 41 97 321 567 865 824 928 887 718 854 659 417 493 1205 1638 1901 2104 2160 2210 2312 2284 2248 2045 2038 1926 1843 1828 1627 1588 1565 1499 1420 1365 1346 1342 1308 1283 1226 1176 1164 1026 987 1072 1292 1265 934 863 1043 959 990 1034 927 623 583 515 387 250
3 0 4 10 4 7 0 0 0 0 0 9 9 2 12 11 45 1 36 19 16 40 81 111 160 165 78 134 454 468 212 344 571 824 772 814 1015 959 883 873 518 496 644 1232 1691 1718 2068 2086 2176 2240 2123 2056 1979 1887 1856 1859 1768 1680 1571 1584 1554 1476 1421 1377 1342 1293 1244 1219 1201 1164 1021 1038 1086 1259 1208 727 825 820 884 1086 1138 1035 758 571 489 324 277
5 2 3 8 24 31 3 0 0 0 0 0 9 10 8 3 0 8 29 25 23 25 57 61 63 34 27 7 71 82 99 344 719 844 754 798 953 962 955 698 227 759 978 1341 1738 1864 1974 2088 2102 2038 2147 2075 1880 1807 1763 1751 1659 1580 1574 1564 1593 1578 1506 1409 1344 1287 1234 1200 1189 1157 1128 1062 1103 1250 1085 699 743 758 948 1103 1212 1111 761 642 464 368 302
2 0 0 0 22 7 3 0 0 0 0 5 5 11 0 5 12 13 33 24 22 28 45 23 63 132 100 78 48 24 78 345 636 754 832 809 1038 993 940 643 257 918 1390 1522 1715 1916 1995 2066 2061 2042 1940 2000 1882 1814 1700 1792 1696 1586 1615 1612 1600 1581 1519 1438 1389 1307 1224 1183 1188 1198 1134 1058 1058 1261 1046 920 873 845 842 995 1087 874 606 627 517 355 336
3 2 4 0 0 18 0 0 0 16 0 25 1 0 9 18 22 24 20 17 13 21 23 79 68 102 268 275 23 42 149 127 538 725 764 725 719 1028 846 615 331 740 1556 1597 1779 1993 1954 1960 1835 1929 1806 1883 1759 1663 1641 1705 1731 1657 1609 1573 1570 1546 1521 1485 1414 1315 1227 1199 1180 1198 1132 1073 1052 1179 905 914 1010 831 754 856 865 608 588 600 444 401 373
0 1 0 0 6 0 0 0 0 0 0 1 4 11 5 8 18 20 6 6 8 16 46 86 106 27 152 66 15 63 76 112 499 646 701 810 1059 978 832 879 579 735 1319 1619 1653 1897 1748 1730 1746 1678 1738 1717 1692 1639 1591 1597 1579 1650 1523 1521 1529 1522 1512 1529 1415 1314 1240 1205 1213 1200 1038 936 1129 1143 984 1021 1042 715 641 790 752 702 712 574 494 430 386
7 4 4 1 1 0 0 0 3 0 0 0 4 9 12 4 4 33 24 33 8 12 7 30 8 9 140 20 21 36 81 170 491 563 655 883 1203 1110 975 1045 954 547 1035 1394 1609 1654 1658 1699 1677 1681 1670 1639 1617 1617 1633 1611 1547 1498 1506 1499 1472 1492 1590 1573 1487 1333 1245 1210 1254 1184 1096 1100 1126 949 1043 1134 943 670 584 670 620 640 671 550 436 432 388
0 7 3 1 0 0 0 0 0 0 0 1 7 8 7 4 1 2 21 32 14 5 12 17 16 4 88 121 62 79 61 320 502 563 625 903 1115 1120 1120 1095 1053 964 1005 1301 1384 1556 1629 1653 1652 1684 1662 1626 1555 1560 1566 1536 1546 1498 1477 1445 1488 1514 1449 1390 1411 1416 1294 1214 1084 1022 1143 932 1000 967 1017 883 784 576 484 532 691 799 752 661 578 482 394
8 0 6 0 0 0 0 0 0 0 0 0 1 8 8 1 2 10 6 12 4 12 13 14 22 22 82 141 171 208 362 494 601 705 787 923 1053 1005 933 1038 1000 1004 976 1164 1360 1444 1530 1588 1595 1633 1653 1617 1589 1473 1439 1395 1451 1503 1467 1461 1423 1277 1289 1001 920 1122 1303 796 712 773 812 844 857 930 782 741 746 577 449 629 800 837 758 660 531 484 477
4 13 6 1 0 0 0 0 0 0 0 0 0 1 1 0 14 28 22 16 12 12 56 116 73 41 164 134 166 295 635 679 808 825 850 869 1008 964 993 875 858 920 916 1085 1231 1335 1395 1482 1546 1541 1597 1641 1559 1482 1357 1341 1348 1362 1424 1384 1168 1118 1048 912 946 917 667 830 713 824 897 861 972 821 779 826 804 688 521 671 772 706 573 549 469 490 490
9 7 0 0 0 0 0 0 0 0 0 0 0 13 49 20 4 31 34 18 5 7 12 40 77 126 168 30 189 632 783 818 804 851 889 867 831 855 876 885 818 787 779 937 1153 1235 1265 1386 1480 1535 1518 1533 1471 1460 1417 1324 1279 1264 1286 1305 1184 1065 1008 961 832 946 967 687 631 683 715 594 515 594 761 760 569 531 616 743 790 725 587 542 459 447 432
4 1 0 3 0 0 0 0 0 0 0 0 0 0 39 0 1 1 0 1 1 1 19 54 70 131 142 106 447 678 656 695 741 796 818 818 868 860 803 749 685 734 673 746 932 975 1114 1263 1396 1466 1485 1448 1457 1454 1437 1356 1216 1248 1284 1257 1199 1077 995 916 892 922 994 927 699 785 800 623 525 585 821 855 687 670 832 886 847 767 639 544 412 470 468
1 2 1 4 2 0 0 0 0 0 0 0 1 6 53 38 1 3 2 0 0 1 69 37 34 74 69 226 388 602 549 562 708 660 665 641 660 732 782 733 704 666 648 606 691 764 846 1039 1199 1285 1333 1380 1393 1409 1411 1351 1284 1143 1081 1017 888 855 787 826 862 771 824 890 830 818 873 986 969 777 798 940 910 705 772 772 752 693 647 574 451 384 356
2 0 1 7 5 5 0 0 0 0 0 0 1 1 40 50 60 16 27 2 1 1 26 32 8 133 334 276 89 353 476 577 593 520 486 551 612 586 654 684 696 660 620 610 606 679 675 809 976 1092 1158 1188 1296 1384 1386 1381 1319 1236 1022 936 887 734 720 730 774 769 808 823 795 916 1106 1072 837 745 817 964 862 663 550 479 671 659 602 403 339 328 349
6 0 0 0 5 3 0 0 0 0 0 2 1 0 38 57 64 14 3 9 5 0 0 83 30 138 432 174 368 170 298 464 427 417 446 435 506 532 470 512 486 498 583 533 504 568 583 645 778 867 958 1103 1205 1249 1268 1301 1295 1262 1193 949 833 825 785 747 663 754 879 940 1001 996 858 731 780 877 873 1046 1029 823 649 471 507 462 406 315 345 370 348
5 1 0 0 0 0 0 0 0 0 0 1 3 3 2 12 20 56 2 1 0 1 0 0 0 0 248 406 270 6 116 223 308 381 531 544 633 516 472 426 413 392 344 387 398 489 541 556 563 721 816 943 1080 1121 1157 1224 1238 1291 1228 1083 871 770 710 687 693 696 726 703 639 589 594 768 1056 1134 922 950 874 665 554 357 345 345 296 274 310 386 338
1 0 0 0 0 0 0 0 0 0 0 0 0 0 0 1 13 2 1 0 1 4 0 0 0 186 209 271 397 408 275 60 27 186 340 360 377 350 279 306 275 254 247 246 249 357 485 505 499 498 628 754 840 940 1022 1104 1228 1263 1220 1107 835 748 706 664 678 738 614 398 333 288 357 510 770 943 715 657 658 677 481 442 369 320 298 276 319 316 288
0 0 0 0 0 0 0 0 0 0 0 0 0 1 0 1 1 2 2 24 0 0 0 0 0 20 486 462 473 450 416 186 110 85 45 91 94 59 140 182 241 284 271 258 199 160 265 379 430 463 444 512 611 696 778 844 909 960 985 915 792 786 710 706 700 680 595 410 417 448 532 639 686 803 564 653 765 546 497 595 433 349 296 269 273 268 266
2 0 0 0 0 0 0 0 0 0 0 0 0 1 0 2 2 0 0 0 0 0 0 0 0 63 347 483 608 613 475 438 457 370 307 45 20 16 2 175 199 116 117 175 128 121 159 187 228 256 306 366 420 482 547 617 698 735 759 732 688 602 568 620 519 559 558 438 498 649 802 866 775 691 667 696 667 460 326 402 367 249 122 231 219 234 238
2 0 0 0 0 0 0 0 0 0 0 0 0 0 0 0 1 2 1 0 0 0 0 0 0 117 198 223 468 575 500 442 409 394 284 289 235 63 3 0 14 66 75 128 164 159 142 183 190 173 167 217 370 379 442 466 553 577 602 623 524 510 414 165 221 570 510 576 782 870 984 798 640 464 308 526 519 572 483 410 420 422 379 346 292 227 212
0 0 0 0 0 0 0 0 0 0 0 0 0 0 0 1 2 2 2 1 0 0 0 0 0 0 10 213 79 401 504 497 436 310 142 227 310 270 5 8 16 132 101 87 88 39 151 167 146 43 56 52 172 243 254 353 432 437 477 431 287 366 332 10 394 511 517 578 659 696 564 445 533 510 422 484 535 535 506 529 489 471 397 346 313 275 203
0 0 0 0 0 0 0 0 0 0 0 0 0 0 0 0 2 4 3 2 0 0 0 0 0 0 0 49 229 217 226 458 426 406 401 347 261 276 201 2 6 75 13 43 23 11 0 0 0 36 21 122 215 113 62 326 335 277 173 268 320 289 195 409 392 462 580 620 578 591 539 440 479 393 419 364 400 456 480 506 491 444 398 348 284 213 196
0 0 0 0 0 0 0 0 0 0 0 0 0 0 0 0 2 3 3 2 1 0 0 0 0 0 0 0 141 231 53 413 400 392 378 362 307 183 150 118 25 18 69 26 34 22 56 70 1 2 7 114 28 75 71 63 55 85 110 70 256 420 474 521 470 460 538 475 364 253 284 365 326 365 420 387 416 470 452 404 384 349 310 263 197 148 117
0 0 0 0 0 0 0 0 1 0 0 0 0 0 0 1 2 4 4 2 0 0 0 0 0 0 0 0 0 163 77 216 373 366 311 347 353 266 145 197 177 180 72 33 45 46 64 111 77 61 37 47 44 17 2 0 75 1 37 277 372 404 393 372 307 269 326 238 179 39 64 86 112 193 347 364 383 308 259 217 174 70 47 4 0 5 0
0 1 1 0 1 1 0 0 0 0 0 0 0 0 0 0 1 3 3 2 1 0 0 0 0 0 0 0 0 0 248 108 470 376 291 234 292 373 339 228 161 230 191 108 41 54 74 8 43 30 23 48 23 10 0 0 32 90 186 240 255 251 172 135 114 128 138 87 25 108 126 113 105 100 103 84 82 121 163 158 125 160 160 152 152 144 136
0 0 1 1 0 1 1 1 0 0 0 0 0 0 0 0 0 2 0 0 2 0 0 0 0 0 0 0 0 0 28 246 340 303 249 228 210 242 338 308 284 259 259 258 179 208 236 108 102 68 45 24 52 57 56 37 22 42 118 167 170 171 170 171 162 129 14 16 7 119 157 157 136 108 44 112 178 226 227 228 270 290 270 206 169 147 127
0 0 0 1 1 0 0 0 0 0 0 0 0 0 0 0 0 2 2 3 2 0 0 0 0 0 0 0 0 0 0 30 165 236 225 223 242 254 214 146 46 241 314 276 314 287 296 253 166 99 58 37 41 42 79 135 191 178 162 175 168 154 170 199 179 157 162 188 224 239 229 242 239 222 238 258 274 280 290 304 288 272 231 190 167 147 47
1 0 2 0 0 0 0 0 0 0 0 0 0 0 0 0 1 2 3 2 1 0 0 0 0 0 0 0 0 0 0 102 96 137 223 207 209 200 184 211 140 100 22 154 250 168 15 70 153 108 67 56 10 1 80 92 97 64 40 158 0 140 149 141 144 181 170 172 230 222 216 199 150 131 111 105 112 105 105 118 106 108 98 52 18 3 0
0 0 0 0 0 0 0 0 0 0 0 0 0 0 0 0 1 2 4 2 0 0 0 0 0 0 0 0 0 0 0 0 72 150 93 222 148 0 0 0 145 140 140 105 5 1 1 0 45 128 93 94 88 42 98 119 133 163 186 181 189 191 210 211 190 171 170 176 148 152 136 111 97 111 115 116 112 86 59 0 0 45 0 0 1 1 0
0 0 0 0 0 0 0 0 0 0 0 0 0 0 0 0 1 2 2 0 0 0 0 0 0 0 0 0 0 0 0 0 1 106 68 168 49 0 0 0 0 46 128 94 146 41 0 0 0 1 0 173 189 147 155 164 171 171 182 200 178 158 154 112 140 132 125 110 96 68 61 62 70 80 76 68 2 0 0 0 0 0 0 0 0 0 0
0 0 0 0 0 0 0 0 0 0 1 1 2 2 2 2 3 4 1 0 0 0 0 0 0 0 0 0 0 0 0 60 193 156 90 56 0 0 0 0 0 0 147 140 108 0 0 0 0 1 0 17 104 248 228 127 71 113 139 64 0 0 0 6 14 12 17 17 24 2 0 0 0 0 0 0 0 0 0 0 0 0 0 0 0 0 0
0 0 0 1 2 0 0 0 1 4 8 5 2 3 11 16 24 6 0 0 0 0 0 0 0 0 0 0 0 0 0 0 141 148 45 0 0 0 1 6 82 116 140 153 120 62 49 46 38 30 0 28 11 182 223 2 83 0 52 144 117 73 58 51 39 2 0 0 0 0 0 0 0 0 0 0 0 0 0 0 0 0 0 0 0 0 0
0 2 4 4 4 4 3 2 3 5 10 8 7 2 17 9 30 25 4 0 8 10 3 2 1 0 0 0 0 0 4 25 72 67 83 5 0 0 0 81 127 8 115 0 3 34 28 58 67 60 71 0 0 60 36 3 1 0 1 16 19 41 89 46 9 0 2 2 2 0 0 0 0 0 0 0 0 0 0 0 0 0 0 0 1 1 0
3 3 1 3 4 5 4 3 4 8 8 7 3 3 4 7 23 12 4 0 7 4 7 5 2 1 0 0 0 4 18 43 34 61 104 106 59 74 51 38 32 74 57 1 21 0 0 2 22 44 36 30 13 70 23 0 0 4 24 31 18 0 0 0 0 0 0 0 0 0 0 0 0 0 0 0 0 0 0 0 0 0 1 2 2 3 3
6 2 2 0 0 2 1 0 2 7 8 17 8 6 18 22 21 18 10 2 0 2 4 4 1 4 36 20 14 24 32 31 32 56 49 72 44 34 43 39 22 33 46 0 0 0 0 0 90 60 30 40 61 31 0 0 0 0 0 0 0 0 0 0 0 0 0 0 0 0 0 0 0 0 0 0 0 0 0 0 1 1 1 0 0 2 3
8 5 7 10 6 2 0 0 2 5 3 7 8 2 9 15 2 4 6 3 0 1 2 8 1 1 16 41 42 38 28 36 41 40 45 16 11 21 40 26 25 39 47 58 48 35 71 109 101 47 58 39 20 0 0 0 0 0 0 0 0 0 0 0 0 0 0 0 0 0 0 0 0 0 0 0 0 0 1 2 1 0 2 3 4 3 2
3 4 8 8 4 2 2 3 1 4 3 2 4 7 10 4 0 0 0 2 3 2 5 30 38 18 1 4 11 22 43 52 51 27 42 32 27 24 41 42 44 36 44 49 50 43 26 21 53 73 52 39 19 11 0 0 0 0 1 1 0 0 0 1 2 4 6 4 3 1 1 0 0 0 0 0 0 0 0 1 4 0 2 1 3 4 4
3 4 4 2 1 0 0 2 4 3 6 6 2 2 6 2 1 4 2 1 1 1 4 5 2 2 1 0 0 6 24 29 31 35 34 18 18 51 53 34 39 43 53 50 50 41 29 8 3 19 4 31 21 0 0 0 3 2 2 1 2 2 3 5 7 8 11 14 16 12 7 1 0 0 0 0 1 2 4 4 4 6 1 0 0 0 0
4 4 2 1 4 3 0 1 1 4 3 2 2 6 2 0 2 6 2 0 13 1 1 2 0 0 0 0 0 0 0 1 2 13 45 47 44 20 36 36 13 38 46 51 85 77 48 4 11 28 16 9 0 0 0 0 0 0 1 4 2 4 1 1 5 9 10 9 7 9 3 0 0 0 1 3 0 2 0 0 5 3 6 10 2 9 1
2 2 1 1 10 20 22 13 8 14 16 9 7 5 4 3 2 9 2 0 1 2 5 4 4 6 1 2 3 4 1 1 0 0 18 10 28 40 52 31 16 28 49 38 36 35 14 4 6 23 14 2 0 0 0 0 2 4 2 0 2 0 0 0 1 3 3 3 1 0 1 1 0 0 0 0 2 0 0 1 0 5 11 16 15 8 5
2 2 1 2 7 11 8 8 5 8 10 4 6 8 0 4 5 5 1 1 1 7 13 12 14 7 0 0 2 2 2 2 1 17 0 2 16 2 15 27 43 55 58 52 43 17 17 18 15 14 7 0 2 5 8 6 7 7 1 0 0 0 3 2 2 4 6 5 4 2 0 0 7 18 18 8 4 2 0 8 0 1 2 2 2 2 2
3 3 2 2 3 3 3 2 2 9 10 9 5 1 0 0 3 0 0 2 2 2 4 2 0 0 0 0 0 0 0 0 0 0 0 0 0 0 0 2 7 16 19 40 25 6 21 24 12 4 6 8 7 8 3 1 1 1 6 8 5 0 3 10 14 19 15 6 0 0 0 0 0 0 0 0 0 9 13 9 6 4 6 6 2 0 7
1 2 2 3 2 2 3 2 8 1 1 4 2 0 0 0 5 2 8 0 0 1 0 5 2 0 0 0 0 0 0 0 0 0 0 0 0 0 0 4 7 6 6 8 1 6 19 18 12 16 14 15 12 31 35 4 6 7 13 32 27 26 31 35 41 33 20 3 0 0 0 0 0 0 0 0 0 0 15 7 6 6 10 11 8 2 1
Wind_Speed
nan nan nan nan nan nan nan nan nan nan nan nan nan nan nan nan nan nan nan nan nan nan nan nan nan nan nan nan nan nan nan nan nan 35 37 37 37 39 37 36 40 45 50 54 56 57 55 53 51 48 47 45 44 42 39 37 35 31 32 33 32 29 30 32 34 36 38 38 38 40 39 34 31 31 31 34 32 28 25 23 21 21 24 26 28 28 29
nan nan nan nan nan nan nan nan nan nan nan nan nan nan nan nan nan nan nan nan nan nan nan nan nan nan nan nan nan nan nan 33 40 41 nan nan 38 40 38 35 38 41 43 46 51 54 52 49 48 46 45 45 41 39 38 37 35 35 36 39 38 35 33 33 36 39 41 41 39 43 40 33 31 32 34 35 32 28 25 23 22 23 25 26 28 30 31
nan nan nan nan nan nan nan nan nan nan nan nan nan nan nan nan nan nan nan nan nan nan nan nan nan 10 nan nan nan nan 26 33 39 41 42 41 40 40 39 37 38 38 37 39 47 50 48 45 44 43 43 42 39 37 36 35 36 34 36 37 34 33 34 35 38 42 43 42 42 43 37 33 31 34 36 36 32 29 26 24 23 25 26 27 28 30 30
nan nan nan nan nan nan nan nan nan nan nan nan nan nan nan nan nan nan nan nan nan nan 9 8 5 5 5 3 8 18 23 30 35 38 41 43 43 43 41 39 38 37 35 36 40 43 43 43 42 42 42 40 37 35 35 34 35 37 38 39 35 34 32 37 40 44 44 42 41 39 37 33 33 34 38 35 33 30 27 26 25 25 25 27 29 30 30
nan nan nan nan nan nan nan nan nan nan nan nan nan nan nan nan nan nan nan nan nan nan 9 10 10 7 5 5 9 16 23 28 33 35 37 40 43 44 43 41 41 40 37 36 37 40 42 43 41 38 37 37 35 35 34 33 38 37 37 39 37 34 37 41 46 45 43 41 41 40 37 35 35 37 35 33 30 26 25 27 27 25 24 27 28 30 30
nan nan nan nan nan nan nan nan nan nan nan nan nan nan nan nan nan nan nan nan nan 10 9 9 9 9 8 8 10 12 14 23 27 31 33 35 38 41 43 44 43 42 42 41 40 38 39 41 38 36 36 35 34 34 35 36 37 39 39 42 38 38 39 46 45 43 42 41 40 39 37 34 36 39 37 33 31 28 29 30 27 25 25 27 29 29 29
nan nan nan nan nan nan nan nan nan nan nan nan nan nan nan nan nan nan nan nan 10 10 8 10 nan 10 9 7 10 13 13 13 18 26 33 34 37 41 46 49 48 45 45 43 41 39 39 39 39 37 35 36 40 43 44 45 46 43 42 40 39 39 42 47 45 44 42 41 39 37 37 36 36 36 36 34 33 31 31 29 27 26 26 26 28 29 29
nan nan nan nan nan nan nan nan nan nan nan nan nan nan nan nan nan nan nan nan nan nan nan nan nan 9 11 11 9 10 14 14 15 nan 32 38 41 44 45 45 44 44 46 44 39 38 39 39 38 36 37 39 43 48 49 48 48 47 43 40 39 42 44 46 44 42 42 41 40 39 38 35 37 38 37 36 35 34 31 29 27 28 27 27 29 29 29
nan nan nan nan nan nan nan nan nan nan nan nan nan nan nan nan nan nan nan nan nan nan nan nan nan 7 9 8 10 7 9 nan nan 27 37 39 41 39 38 37 40 43 44 43 38 36 37 36 35 34 35 36 41 45 44 44 45 45 41 39 40 43 45 45 43 41 40 41 41 40 37 36 36 36 37 38 38 35 32 30 30 28 28 28 28 29 29
nan nan nan nan nan nan nan nan nan nan nan nan nan nan nan nan nan nan nan nan nan nan nan nan nan 9 6 6 8 11 nan nan 27 32 36 38 39 38 37 38 38 39 41 42 38 35 35 35 34 35 35 37 38 38 40 40 41 43 40 39 41 42 42 42 42 43 44 43 39 38 37 36 35 36 37 39 38 36 34 33 30 30 30 28 27 28 29
nan nan nan nan nan nan nan nan nan nan nan nan nan nan nan nan nan nan nan nan nan nan nan 11 11 7 nan 5 13 13 19 28 32 37 38 37 38 37 37 39 40 40 41 39 36 35 33 31 32 34 35 35 38 39 40 40 41 42 38 39 39 39 40 41 45 45 42 41 40 40 38 39 36 35 37 40 41 38 35 33 32 32 31 29 27 26 27
nan nan nan nan nan nan nan nan nan nan nan nan nan nan nan nan nan nan nan nan nan nan nan nan nan nan nan nan nan nan nan 30 33 34 38 38 38 40 42 41 39 40 42 38 36 34 32 31 31 32 33 34 37 38 38 40 40 38 37 37 39 41 45 46 46 45 43 41 41 43 44 41 41 37 39 44 42 39 37 35 34 33 31 29 26 26 27
nan nan nan nan nan nan nan nan nan nan nan nan nan nan nan nan nan nan nan nan nan nan nan nan nan 1 nan nan nan nan nan 31 33 33 34 33 33 37 42 44 42 39 37 36 34 32 33 33 33 33 34 35 37 39 39 39 36 34 35 41 44 46 47 47 47 45 45 44 44 45 44 40 40 40 41 42 42 40 39 37 35 34 31 27 25 26 29
nan nan nan nan nan nan nan nan nan nan nan nan nan nan nan nan nan nan nan nan nan nan nan nan nan 8 14 17 nan nan 19 22 28 30 32 32 27 29 36 40 38 37 36 35 33 32 33 33 32 33 33 35 37 41 43 39 37 34 36 41 44 47 49 50 50 49 48 48 47 48 47 42 38 40 41 42 42 40 37 36 35 34 30 25 25 29 31
nan nan nan nan nan nan nan nan nan nan nan nan nan nan nan nan nan nan nan nan nan nan nan nan 9 nan 18 nan nan nan nan 22 26 29 31 33 29 27 33 41 41 37 35 32 32 32 33 32 33 35 35 35 39 41 38 38 43 43 42 46 47 49 50 51 50 49 49 50 49 48 44 41 40 39 40 42 41 39 36 36 36 33 28 26 27 30 32
nan nan nan nan nan nan nan nan nan nan nan nan nan nan nan nan nan nan nan nan nan nan nan nan nan nan 19 nan nan nan nan 23 25 26 28 31 29 28 31 37 42 40 36 35 34 34 36 36 36 35 37 37 38 39 37 42 46 48 46 47 49 50 50 50 50 50 50 49 49 48 44 42 41 43 41 43 40 38 38 38 36 31 28 26 28 31 34
nan nan nan nan nan nan nan nan nan nan nan nan nan nan nan nan nan nan nan nan nan nan nan nan nan nan nan 19 nan nan nan 25 25 26 27 30 31 29 30 38 45 42 36 36 36 35 36 35 36 35 38 38 37 34 37 44 44 46 49 54 57 56 54 50 48 49 49 48 48 45 44 43 44 44 42 42 40 39 38 38 35 29 26 25 26 30 37
nan nan nan nan nan nan nan nan nan nan nan nan nan nan nan nan nan nan nan nan nan nan nan nan nan nan nan 22 23 26 27 26 25 25 24 28 31 29 30 39 46 44 39 35 34 34 34 32 32 31 30 33 34 37 41 39 39 42 43 45 45 41 39 42 44 49 52 50 43 39 42 43 44 43 42 41 40 39 39 36 32 28 25 26 28 32 35
nan nan nan nan nan nan nan nan nan nan nan nan nan nan nan nan nan nan nan nan nan nan nan 10 nan nan 20 19 19 23 27 28 27 27 26 28 31 29 30 36 42 44 38 33 32 31 30 29 29 29 29 31 31 38 40 36 36 36 38 38 37 37 39 44 48 46 42 39 37 36 34 39 39 41 41 39 39 41 39 37 32 29 30 31 32 34 34
nan nan nan nan nan nan nan nan nan nan nan nan nan nan nan nan nan nan nan nan nan nan nan nan nan 15 18 nan 18 19 24 27 28 30 30 30 32 32 30 32 36 38 38 34 30 28 27 28 29 30 30 34 35 37 38 37 34 34 36 37 37 38 39 41 42 38 34 34 37 38 36 36 39 41 39 37 36 37 37 35 33 29 29 30 33 35 35
nan nan nan nan nan nan nan nan nan nan nan nan nan nan nan nan nan nan nan nan nan nan nan nan nan 13 16 17 18 20 21 24 27 30 30 31 33 33 33 33 34 35 36 35 31 28 27 28 29 29 32 38 39 39 39 36 33 34 35 36 38 39 39 39 40 40 39 38 39 43 43 41 40 42 39 37 37 37 35 35 33 32 29 29 31 33 35
nan nan nan nan nan nan nan nan nan nan nan nan nan nan nan nan nan nan nan nan nan nan nan nan nan nan nan 17 20 20 19 21 27 33 34 33 35 36 36 34 34 36 36 35 32 29 27 27 28 29 31 37 39 37 39 36 32 32 35 35 36 38 38 38 38 39 40 39 39 42 45 47 48 51 55 52 42 37 37 38 35 29 31 31 32 33 32
nan nan nan nan nan nan nan nan nan nan nan nan nan nan nan nan nan nan nan nan nan nan nan nan nan 15 15 19 nan 17 17 21 25 31 33 32 32 35 38 37 37 37 38 36 33 30 29 28 28 29 31 35 38 38 36 33 30 32 35 35 34 34 36 36 36 36 36 39 40 42 43 46 47 48 49 53 56 51 48 43 39 37 34 35 34 33 32
nan nan nan nan nan nan nan nan nan nan nan nan nan nan nan nan nan nan nan nan nan nan nan nan nan 10 15 14 13 16 19 19 21 27 30 30 29 30 33 36 38 38 39 39 37 33 31 30 30 31 32 33 36 37 33 30 30 31 32 32 32 33 33 33 36 37 37 39 43 45 45 46 47 47 49 50 50 52 49 45 41 39 38 39 37 34 31
nan nan nan nan nan nan nan nan nan nan nan nan nan nan nan nan nan nan nan nan nan nan nan nan nan nan 11 11 14 nan 18 19 19 21 25 27 29 31 31 33 35 36 37 36 34 34 34 33 30 30 29 30 31 33 34 30 28 29 30 32 33 36 37 38 37 39 42 43 43 45 48 49 47 46 47 46 46 47 49 48 43 40 39 38 35 32 33
nan nan nan nan nan nan nan nan nan nan nan nan nan nan nan nan nan nan nan nan nan nan nan nan nan 12 10 12 12 12 16 nan nan 20 22 27 30 32 32 31 30 31 32 31 32 32 32 32 31 31 31 31 29 30 30 30 29 30 32 33 35 38 41 39 40 42 45 46 45 45 47 49 47 45 44 43 43 46 45 39 41 44 43 37 31 30 31
nan nan nan nan nan nan nan nan nan nan nan nan nan nan nan nan nan nan nan nan nan nan nan nan nan nan 12 14 13 9 11 20 23 nan nan nan nan nan 31 29 28 28 27 26 28 30 29 28 28 28 29 31 33 35 35 32 30 29 30 33 36 37 42 42 42 45 46 46 46 46 46 48 48 46 44 44 43 42 39 35 35 36 33 32 31 30 32
nan nan nan nan nan nan nan nan nan nan nan nan nan nan nan nan nan nan nan nan nan nan nan nan nan nan 15 16 16 13 11 14 19 22 25 nan nan nan nan 29 29 29 29 28 27 25 23 21 20 20 22 24 26 29 31 32 31 31 31 34 37 38 39 42 45 45 46 46 45 45 45 48 49 48 47 44 42 41 41 39 39 37 36 35 34 34 37
nan nan nan nan nan nan nan nan nan nan nan nan nan nan nan nan nan nan nan nan nan nan nan nan nan 15 15 16 13 11 10 12 17 20 22 26 29 nan nan nan nan nan nan 28 28 26 24 23 21 20 22 23 24 26 29 30 30 30 34 38 40 41 43 44 44 44 44 44 42 44 47 47 46 45 45 43 42 42 41 40 38 37 37 37 37 37 38
nan nan nan nan nan nan nan nan nan nan nan nan nan nan nan nan nan nan nan nan nan nan nan nan nan nan nan 10 nan 12 10 12 15 15 17 22 24 26 nan nan nan 24 23 nan nan nan 26 25 25 nan nan nan 25 27 29 31 31 32 36 39 42 43 43 nan 42 41 40 39 40 44 44 43 41 41 40 38 38 40 40 38 37 37 36 36 36 37 38
nan nan nan nan nan nan nan nan nan nan nan nan nan nan nan nan nan nan nan nan nan nan nan nan nan nan nan nan 10 12 10 11 15 18 18 19 20 21 23 nan nan nan nan nan nan nan nan nan nan nan nan 30 30 30 nan 31 32 34 37 37 37 41 43 41 39 37 37 39 39 39 39 39 39 40 41 41 40 40 39 37 36 36 36 37 37 37 38
nan nan nan nan nan nan nan nan nan nan nan nan nan nan nan nan nan nan nan nan nan nan nan nan nan nan nan nan 12 13 nan 12 14 18 19 18 20 21 21 23 nan nan nan nan nan nan nan nan nan nan nan 30 nan nan nan nan nan nan 34 nan 36 36 38 42 39 39 38 39 39 36 36 37 37 39 42 42 40 37 36 36 36 37 36 37 37 37 37
nan nan nan nan nan nan nan nan nan nan nan nan nan nan nan nan nan nan nan nan nan nan nan nan nan nan nan nan nan 13 nan 11 12 17 21 23 22 22 23 22 23 22 nan nan nan nan nan 26 nan nan nan nan nan nan nan nan nan nan nan 30 32 35 36 36 36 36 36 37 35 nan nan nan 36 35 37 39 39 38 38 38 38 nan nan nan nan nan nan
nan nan nan nan nan nan nan nan nan nan nan nan nan nan nan nan nan nan nan nan nan nan nan nan nan nan nan nan nan nan 15 13 17 17 19 22 24 25 25 25 25 23 22 21 nan nan nan nan nan nan nan nan nan nan nan nan nan nan 28 30 32 33 33 30 30 30 30 nan nan 34 37 37 36 35 37 nan nan 38 39 39 39 39 39 38 38 37 38
nan nan nan nan nan nan nan nan nan nan nan nan nan nan nan nan nan nan nan nan nan nan nan nan nan nan nan nan nan nan nan 19 18 18 17 19 23 25 25 24 26 25 24 23 22 23 24 22 21 nan nan nan nan nan nan nan nan nan 29 30 29 28 26 26 26 27 nan nan nan 32 33 33 35 36 nan 37 38 38 39 39 39 38 38 37 37 37 37
nan nan nan nan nan nan nan nan nan nan nan nan nan nan nan nan nan nan nan nan nan nan nan nan nan nan nan nan nan nan nan nan 18 17 18 19 21 23 26 27 nan 26 24 23 24 23 19 17 18 nan nan nan nan nan nan 26 26 25 24 24 24 23 24 26 27 27 28 29 31 32 32 35 36 37 37 38 38 38 38 37 37 36 36 36 37 38 nan
nan nan nan nan nan nan nan nan nan nan nan nan nan nan nan nan nan nan nan nan nan nan nan nan nan nan nan nan nan nan nan 19 nan 17 18 20 21 23 26 27 29 28 nan 21 22 24 nan nan 21 24 nan nan nan nan nan nan nan nan nan 22 nan 22 23 25 26 26 27 29 29 31 32 33 34 35 36 37 37 37 36 36 36 36 nan nan nan nan nan
nan nan nan nan nan nan nan nan nan nan nan nan nan nan nan nan nan nan nan nan nan nan nan nan nan nan nan nan nan nan nan nan nan 19 nan 21 21 nan nan nan 26 26 26 24 nan nan nan nan nan 18 nan nan nan nan nan 24 23 24 26 27 26 25 25 25 26 27 27 28 28 29 30 31 nan 33 34 35 36 nan nan nan nan nan nan nan nan nan nan
nan nan nan nan nan nan nan nan nan nan nan nan nan nan nan nan nan nan nan nan nan nan nan nan nan nan nan nan nan nan nan nan nan 22 nan 21 nan nan nan nan nan nan 22 nan 25 nan nan nan nan nan nan 20 23 22 21 23 25 25 26 27 27 26 25 25 26 26 27 27 nan nan nan nan nan nan nan nan nan nan nan nan nan nan nan nan nan nan nan
nan nan nan nan nan nan nan nan nan nan nan nan nan nan nan nan nan nan nan nan nan nan nan nan nan nan nan nan nan nan nan nan 21 21 nan nan nan nan nan nan nan nan 25 26 25 nan nan nan nan nan nan nan 21 20 19 22 nan 23 24 nan nan nan nan nan nan nan nan nan nan nan nan nan nan nan nan nan nan nan nan nan nan nan nan nan nan nan nan
nan nan nan nan nan nan nan nan nan nan nan nan nan nan nan nan nan nan nan nan nan nan nan nan nan nan nan nan nan nan nan nan 22 22 nan nan nan nan nan nan nan 20 23 24 24 nan nan nan nan nan nan nan nan 17 16 nan nan nan nan 25 27 nan nan nan nan nan nan nan nan nan nan nan nan nan nan nan nan nan nan nan nan nan nan nan nan nan nan
nan nan nan nan nan nan nan nan nan nan nan nan nan nan nan nan nan nan nan nan nan nan nan nan nan nan nan nan nan nan nan nan nan nan nan nan nan nan nan nan 21 nan 23 nan nan nan nan nan nan nan nan nan nan nan nan nan nan nan nan nan nan nan nan nan nan nan nan nan nan nan nan nan nan nan nan nan nan nan nan nan nan nan nan nan nan nan nan
nan nan nan nan nan nan nan nan nan nan nan nan nan nan nan nan nan nan nan nan nan nan nan nan nan nan nan nan nan nan nan nan nan nan 23 23 nan nan nan nan nan nan nan nan nan nan nan nan nan nan nan nan nan nan nan nan nan nan nan nan nan nan nan nan nan nan nan nan nan nan nan nan nan nan nan nan nan nan nan nan nan nan nan nan nan nan nan
nan nan nan nan nan nan nan nan nan nan nan nan nan nan nan nan nan nan nan nan nan nan nan nan nan nan nan nan nan nan nan nan nan nan nan nan nan nan nan nan nan nan nan nan nan nan nan nan nan nan nan nan nan nan nan nan nan nan nan nan nan nan nan nan nan nan nan nan nan nan nan nan nan nan nan nan nan nan nan nan nan nan nan nan nan nan nan
nan nan nan nan nan nan nan nan nan nan nan nan nan nan nan nan nan nan nan nan nan nan nan nan nan nan nan nan nan nan nan nan nan nan nan nan nan nan nan nan nan nan nan nan nan nan nan 26 28 nan nan nan nan nan nan nan nan nan nan nan nan nan nan nan nan nan nan nan nan nan nan nan nan nan nan nan nan nan nan nan nan nan nan nan nan nan nan
nan nan nan nan nan nan nan nan nan nan nan nan nan nan nan nan nan nan nan nan nan nan nan nan nan nan nan nan nan nan nan nan nan nan nan nan nan nan nan nan nan nan nan nan nan nan nan nan nan nan nan nan nan nan nan nan nan nan nan nan nan nan nan nan nan nan nan nan nan nan nan nan nan nan nan nan nan nan nan nan nan nan nan nan nan nan nan
nan nan nan nan nan nan nan nan nan nan nan nan nan nan nan nan nan nan nan nan nan nan nan nan nan nan nan nan nan nan nan nan nan nan nan nan nan nan nan nan nan nan nan nan nan nan nan nan nan nan nan nan nan nan nan nan nan nan nan nan nan nan nan nan nan nan nan nan nan nan nan nan nan nan nan nan nan nan nan nan nan nan nan nan nan nan nan
nan nan nan nan nan nan nan nan nan nan nan nan nan nan nan nan nan nan nan nan nan nan nan nan nan nan nan nan nan nan nan nan nan nan nan nan nan nan nan nan nan nan nan nan nan nan nan nan nan nan nan nan nan nan nan nan nan nan nan nan nan nan nan nan nan nan nan nan nan nan nan nan nan nan nan nan nan nan nan nan nan nan nan nan nan nan nan
nan nan nan nan nan nan nan nan nan nan nan nan nan nan nan nan nan nan nan nan nan nan nan nan nan nan nan nan nan nan nan nan nan nan nan nan nan nan nan nan nan nan nan nan nan nan nan nan nan nan nan nan nan nan nan nan nan nan nan nan nan nan nan nan nan nan nan nan nan nan nan nan nan nan nan nan nan nan nan nan nan nan nan nan nan nan nan
nan nan nan nan nan nan nan nan nan nan nan nan nan nan nan nan nan nan nan nan nan nan nan nan nan nan nan nan nan nan nan nan nan nan nan nan nan nan nan nan nan nan nan nan nan nan nan nan nan nan nan nan nan nan nan nan nan nan nan nan nan nan nan nan nan nan nan nan nan nan nan nan nan nan nan nan nan nan nan nan nan nan nan nan nan nan nan
nan nan nan nan nan nan nan nan nan nan nan nan nan nan nan nan nan nan nan nan nan nan nan nan nan nan nan nan nan nan nan nan nan nan nan nan nan nan nan nan nan nan nan nan nan nan nan nan nan nan nan nan nan nan nan nan nan nan nan nan nan nan nan nan nan nan nan nan nan nan nan nan nan nan nan nan nan nan nan nan nan nan nan nan nan nan nan
nan nan nan nan nan nan nan nan nan nan nan nan nan nan nan nan nan nan nan nan nan nan nan nan nan nan nan nan nan nan nan nan nan nan nan nan nan nan nan nan nan nan nan nan nan nan nan nan nan nan nan nan nan nan nan nan nan nan nan nan nan nan nan nan nan nan nan nan nan nan nan nan nan nan nan nan nan nan nan nan nan nan nan nan nan nan nan
Wind_Direction
nan nan nan nan nan nan nan nan nan nan nan nan nan nan nan nan nan nan nan nan nan nan nan nan nan nan nan nan nan nan nan nan nan 190 193 188 190 190 192 198 206 209 210 213 210 206 207 211 215 218 218 220 222 223 227 232 234 235 236 239 241 243 245 252 255 256 256 256 258 262 264 264 264 264 264 261 263 261 261 263 263 273 277 281 282 284 282
nan nan nan nan nan nan nan nan nan nan nan nan nan nan nan nan nan nan nan nan nan nan nan nan nan nan nan nan nan nan nan 182 188 193 nan nan 193 191 191 195 204 209 207 211 215 211 208 211 214 216 218 220 223 223 225 227 228 227 230 230 234 235 241 248 248 251 255 254 258 255 257 263 263 263 260 260 261 262 262 263 263 267 273 277 281 284 285
nan nan nan nan nan nan nan nan nan nan nan nan nan nan nan nan nan nan nan nan nan nan nan nan nan 203 nan nan nan nan 178 184 189 194 197 198 195 190 192 196 201 206 206 211 216 214 211 212 214 215 218 221 222 223 225 228 227 230 234 237 238 239 239 243 244 247 251 252 252 253 263 261 260 257 256 256 259 260 261 261 263 264 265 274 277 280 285
nan nan nan nan nan nan nan nan nan nan nan nan nan nan nan nan nan nan nan nan nan nan 230 203 198 211 217 216 158 167 185 189 192 194 196 199 196 192 192 197 201 204 210 214 216 213 212 213 214 215 218 221 222 222 226 228 228 231 234 237 240 237 240 242 246 248 248 251 254 260 260 261 260 257 253 257 259 261 260 261 260 263 266 274 276 279 280
nan nan nan nan nan nan nan nan nan nan nan nan nan nan nan nan nan nan nan nan nan nan 197 180 176 210 231 210 172 174 178 190 194 192 192 197 198 194 193 197 203 203 207 214 211 206 208 212 214 216 219 221 221 222 224 225 227 233 238 240 241 239 238 242 241 244 249 252 254 255 258 256 254 252 259 263 265 269 265 260 259 266 274 274 276 277 282
nan nan nan nan nan nan nan nan nan nan nan nan nan nan nan nan nan nan nan nan nan 161 164 170 169 176 177 185 160 160 183 192 191 189 190 195 197 195 195 201 206 202 202 206 207 204 206 210 211 211 215 218 219 221 223 227 233 236 238 237 241 238 240 239 242 244 248 251 252 255 255 258 253 251 257 263 265 264 259 257 259 266 272 277 274 278 284
nan nan nan nan nan nan nan nan nan nan nan nan nan nan nan nan nan nan nan nan 142 158 140 131 nan 149 149 142 142 146 166 184 184 181 188 191 192 195 199 202 203 199 196 200 202 202 202 206 210 210 210 213 216 218 222 225 225 230 232 239 240 240 240 238 242 243 246 250 252 254 250 251 251 257 256 261 264 260 255 259 262 265 271 275 274 277 282
nan nan nan nan nan nan nan nan nan nan nan nan nan nan nan nan nan nan nan nan nan nan nan nan nan 153 146 145 132 133 153 162 169 nan 182 185 189 194 198 196 192 191 190 193 197 198 200 204 208 209 212 215 219 220 222 225 225 227 232 235 237 236 237 238 241 243 244 247 249 247 246 252 250 256 256 258 259 257 256 255 255 259 265 269 274 277 280
nan nan nan nan nan nan nan nan nan nan nan nan nan nan nan nan nan nan nan nan nan nan nan nan nan 137 136 136 136 155 141 nan nan 174 172 179 185 189 186 183 181 182 182 183 190 197 200 201 204 205 210 215 220 224 226 228 231 231 231 232 233 235 236 237 237 241 244 245 245 244 249 253 252 256 255 254 255 256 256 254 255 259 263 266 270 276 282
nan nan nan nan nan nan nan nan nan nan nan nan nan nan nan nan nan nan nan nan nan nan nan nan nan 106 94 104 128 155 nan nan 163 168 174 179 186 185 177 175 177 179 179 181 186 192 198 200 201 205 211 217 222 227 229 233 236 232 230 229 231 234 235 236 237 237 237 239 244 248 252 252 252 254 254 252 256 253 254 253 255 258 260 263 268 275 284
nan nan nan nan nan nan nan nan nan nan nan nan nan nan nan nan nan nan nan nan nan nan nan 98 114 90 nan 106 130 152 161 159 166 171 179 184 187 183 177 175 172 174 178 180 187 192 197 200 205 211 217 223 225 228 230 233 234 232 232 231 233 237 237 238 236 237 239 241 241 246 253 246 250 253 253 251 252 253 251 253 255 257 259 261 265 272 280
nan nan nan nan nan nan nan nan nan nan nan nan nan nan nan nan nan nan nan nan nan nan nan nan nan nan nan nan nan nan nan 159 171 180 182 185 185 183 179 177 175 172 176 183 189 192 194 198 206 214 220 223 228 230 232 235 235 234 235 236 237 236 236 237 238 238 238 241 243 245 245 245 241 248 246 245 250 254 252 251 252 256 259 260 270 275 278
nan nan nan nan nan nan nan nan nan nan nan nan nan nan nan nan nan nan nan nan nan nan nan nan nan 149 nan nan nan nan nan 158 172 182 186 188 184 176 176 175 173 172 177 185 188 189 192 198 207 215 220 224 230 232 234 236 238 238 237 235 237 238 239 240 239 239 239 241 245 243 242 244 241 241 244 247 249 252 252 250 253 255 260 261 267 273 275
nan nan nan nan nan nan nan nan nan nan nan nan nan nan nan nan nan nan nan nan nan nan nan nan nan 134 138 133 nan nan 141 158 172 180 187 189 186 177 172 168 171 174 178 182 186 189 194 203 208 213 218 222 227 228 228 233 235 238 237 235 236 239 242 243 241 240 240 241 243 241 241 240 241 239 242 246 249 253 253 254 256 258 259 262 266 268 269
nan nan nan nan nan nan nan nan nan nan nan nan nan nan nan nan nan nan nan nan nan nan nan nan 118 nan 145 nan nan nan nan 169 180 186 191 193 192 190 184 174 174 179 180 185 189 192 198 202 205 211 217 221 223 227 229 231 232 234 234 233 236 240 241 242 244 243 242 244 241 239 241 240 241 244 244 244 247 253 259 258 255 257 259 261 265 269 269
nan nan nan nan nan nan nan nan nan nan nan nan nan nan nan nan nan nan nan nan nan nan nan nan nan nan 149 nan nan nan nan 173 183 192 200 204 203 198 194 179 171 176 182 185 190 195 197 200 205 210 215 221 226 230 232 232 235 235 237 239 240 240 241 243 242 242 243 244 244 241 241 240 240 242 244 242 249 252 255 257 254 256 253 262 265 268 270
nan nan nan nan nan nan nan nan nan nan nan nan nan nan nan nan nan nan nan nan nan nan nan nan nan nan nan 163 nan nan nan 171 180 187 197 207 206 200 191 179 174 177 184 186 191 197 201 205 208 214 218 225 232 236 235 237 241 244 242 239 238 239 237 234 240 244 243 242 243 239 239 240 240 238 243 246 249 251 256 257 252 255 260 269 273 269 264
nan nan nan nan nan nan nan nan nan nan nan nan nan nan nan nan nan nan nan nan nan nan nan nan nan nan nan 163 173 172 172 175 183 187 193 205 205 201 193 183 179 180 185 189 193 200 205 210 216 219 226 232 234 231 235 241 243 245 250 251 252 254 251 247 240 232 232 233 235 236 240 236 235 239 243 245 248 251 253 256 256 257 265 267 270 267 268
nan nan nan nan nan nan nan nan nan nan nan nan nan nan nan nan nan nan nan nan nan nan nan 105 nan nan 141 155 168 171 175 180 188 192 195 203 208 207 201 190 182 183 188 193 197 202 209 216 220 224 229 231 235 233 236 239 241 245 248 248 248 251 250 245 243 240 239 236 235 237 240 238 238 241 245 248 249 250 250 252 253 255 254 260 264 267 272
nan nan nan nan nan nan nan nan nan nan nan nan nan nan nan nan nan nan nan nan nan nan nan nan nan 147 136 nan 156 168 177 183 189 198 199 200 205 208 208 201 190 186 191 195 201 208 215 222 226 228 230 229 233 236 239 240 244 248 252 252 250 252 255 253 252 250 245 249 247 241 244 245 242 244 251 253 255 256 256 257 257 255 255 260 266 270 269
nan nan nan nan nan nan nan nan nan nan nan nan nan nan nan nan nan nan nan nan nan nan nan nan nan 148 141 143 142 150 170 181 192 199 202 203 205 206 205 204 201 198 198 200 203 209 217 225 232 237 236 235 238 242 244 247 247 248 251 258 259 262 260 256 257 255 248 246 244 244 245 245 245 245 254 256 255 254 258 262 263 259 260 265 271 274 275
nan nan nan nan nan nan nan nan nan nan nan nan nan nan nan nan nan nan nan nan nan nan nan nan nan nan nan 155 150 146 163 179 190 195 199 202 206 208 208 205 207 206 207 206 207 210 217 224 232 240 242 242 245 246 245 246 250 255 255 261 267 268 266 266 265 261 255 253 253 252 250 248 246 237 230 234 241 254 256 255 252 256 265 267 275 275 274
nan nan nan nan nan nan nan nan nan nan nan nan nan nan nan nan nan nan nan nan nan nan nan nan nan 91 116 142 nan 156 170 181 187 192 193 194 198 205 206 206 209 210 210 210 211 216 221 228 233 240 246 248 250 249 248 248 255 260 262 258 257 263 265 266 270 270 265 260 257 257 257 256 253 250 244 238 235 241 247 247 253 260 258 256 272 278 276
nan nan nan nan nan nan nan nan nan nan nan nan nan nan nan nan nan nan nan nan nan nan nan nan nan 76 107 129 157 165 176 179 180 182 187 192 195 198 202 207 210 213 214 217 217 220 228 234 239 243 247 250 250 247 247 250 256 262 266 260 254 255 255 252 267 270 270 266 260 257 258 260 259 255 252 248 238 231 240 252 250 253 259 266 272 272 270
nan nan nan nan nan nan nan nan nan nan nan nan nan nan nan nan nan nan nan nan nan nan nan nan nan nan 124 132 160 nan 178 177 175 171 178 187 195 202 203 203 205 209 213 215 219 222 225 227 235 243 246 248 248 246 242 248 255 262 265 261 256 252 253 256 257 259 263 265 261 258 257 257 256 254 252 249 247 243 234 234 242 249 258 265 269 272 273
nan nan nan nan nan nan nan nan nan nan nan nan nan nan nan nan nan nan nan nan nan nan nan nan nan 150 143 147 155 155 158 nan nan 176 182 183 191 198 201 201 199 203 210 216 219 221 223 225 226 230 234 237 239 242 244 243 247 254 259 262 262 258 255 259 262 260 260 261 262 260 258 257 254 251 248 244 245 248 248 242 237 237 240 250 264 269 271
nan nan nan nan nan nan nan nan nan nan nan nan nan nan nan nan nan nan nan nan nan nan nan nan nan nan 162 181 167 156 159 157 169 nan nan nan nan nan 187 190 197 201 206 214 218 219 219 220 225 230 233 234 234 231 230 237 245 250 254 256 257 261 271 269 265 265 263 262 262 263 262 258 254 250 244 239 242 246 249 247 246 250 254 247 246 255 261
nan nan nan nan nan nan nan nan nan nan nan nan nan nan nan nan nan nan nan nan nan nan nan nan nan nan 166 173 174 166 168 173 174 172 180 nan nan nan nan 184 188 192 194 196 200 201 202 206 213 218 218 220 224 227 231 236 240 244 247 250 251 253 256 262 261 261 262 263 263 261 257 251 246 242 238 237 237 236 236 239 243 247 249 247 248 244 259
nan nan nan nan nan nan nan nan nan nan nan nan nan nan nan nan nan nan nan nan nan nan nan nan nan 160 157 153 160 153 157 171 173 171 176 180 180 nan nan nan nan nan nan 187 186 185 188 192 199 207 207 210 219 225 228 231 233 238 243 247 250 254 252 251 254 255 256 257 255 252 246 242 239 234 230 228 230 232 233 237 242 245 251 253 251 251 250
nan nan nan nan nan nan nan nan nan nan nan nan nan nan nan nan nan nan nan nan nan nan nan nan nan nan nan 157 nan 158 160 172 175 172 178 187 187 185 nan nan nan 190 193 nan nan nan 195 198 204 nan nan nan 229 234 236 239 240 242 245 250 254 254 253 nan 252 255 255 250 247 247 243 237 231 230 231 231 231 232 234 237 242 246 250 252 256 260 263
nan nan nan nan nan nan nan nan nan nan nan nan nan nan nan nan nan nan nan nan nan nan nan nan nan nan nan nan 172 163 165 176 188 182 186 193 197 194 189 nan nan nan nan nan nan nan nan nan nan nan nan 225 230 237 nan 241 242 245 246 245 246 256 256 253 252 254 253 250 247 242 236 231 226 226 228 230 230 230 231 236 239 242 248 252 259 264 263
nan nan nan nan nan nan nan nan nan nan nan nan nan nan nan nan nan nan nan nan nan nan nan nan nan nan nan nan 171 179 nan 179 190 190 187 192 200 200 199 199 nan nan nan nan nan nan nan nan nan nan nan 228 nan nan nan nan nan nan 246 nan 250 247 248 254 249 249 248 247 246 237 228 227 225 224 227 228 230 232 235 238 242 247 251 255 259 262 265
nan nan nan nan nan nan nan nan nan nan nan nan nan nan nan nan nan nan nan nan nan nan nan nan nan nan nan nan nan 189 nan 171 191 199 188 187 194 199 202 202 201 195 nan nan nan nan nan 234 nan nan nan nan nan nan nan nan nan nan nan 239 240 245 243 245 247 245 242 243 239 nan nan nan 226 226 228 230 230 234 236 241 246 nan nan nan nan nan nan
nan nan nan nan nan nan nan nan nan nan nan nan nan nan nan nan nan nan nan nan nan nan nan nan nan nan nan nan nan nan 194 193 202 195 185 180 187 193 197 201 200 197 196 201 nan nan nan nan nan nan nan nan nan nan nan nan nan nan 236 238 238 238 238 238 239 236 234 nan nan 229 226 224 229 228 228 nan nan 233 238 243 245 248 252 255 258 263 269
nan nan nan nan nan nan nan nan nan nan nan nan nan nan nan nan nan nan nan nan nan nan nan nan nan nan nan nan nan nan nan 201 195 192 183 181 186 191 195 199 201 199 196 193 197 208 216 218 217 nan nan nan nan nan nan nan nan nan 229 229 228 228 229 229 229 229 nan nan nan 227 225 226 227 227 nan 230 232 237 242 245 248 252 256 259 262 266 272
nan nan nan nan nan nan nan nan nan nan nan nan nan nan nan nan nan nan nan nan nan nan nan nan nan nan nan nan nan nan nan nan 189 189 191 188 193 197 199 200 nan 205 203 199 194 194 204 220 222 nan nan nan nan nan nan 203 200 200 209 216 215 214 214 217 219 223 223 223 224 225 226 229 231 232 234 237 241 244 247 250 254 257 260 264 267 270 nan
nan nan nan nan nan nan nan nan nan nan nan nan nan nan nan nan nan nan nan nan nan nan nan nan nan nan nan nan nan nan nan 198 nan 202 199 198 204 206 206 205 203 202 nan 203 192 187 nan nan 195 210 nan nan nan nan nan nan nan nan nan 207 nan 211 213 215 216 216 217 219 227 230 236 236 236 237 240 242 244 247 250 253 255 257 nan nan nan nan nan
nan nan nan nan nan nan nan nan nan nan nan nan nan nan nan nan nan nan nan nan nan nan nan nan nan nan nan nan nan nan nan nan nan 205 nan 210 210 nan nan nan 204 198 201 200 nan nan nan nan nan 205 nan nan nan nan nan 234 229 224 220 213 210 211 214 216 219 219 224 228 233 236 239 239 nan 243 243 244 246 nan nan nan nan nan nan nan nan nan nan
nan nan nan nan nan nan nan nan nan nan nan nan nan nan nan nan nan nan nan nan nan nan nan nan nan nan nan nan nan nan nan nan nan 211 nan 210 nan nan nan nan nan nan 194 nan 190 nan nan nan nan nan nan 231 232 237 237 237 231 224 219 215 216 219 224 225 226 226 227 230 nan nan nan nan nan nan nan nan nan nan nan nan nan nan nan nan nan nan nan
nan nan nan nan nan nan nan nan nan nan nan nan nan nan nan nan nan nan nan nan nan nan nan nan nan nan nan nan nan nan nan nan 203 200 nan nan nan nan nan nan nan nan 199 199 204 nan nan nan nan nan nan nan 221 221 222 229 nan 227 228 nan nan nan nan nan nan nan nan nan nan nan nan nan nan nan nan nan nan nan nan nan nan nan nan nan nan nan nan
nan nan nan nan nan nan nan nan nan nan nan nan nan nan nan nan nan nan nan nan nan nan nan nan nan nan nan nan nan nan nan nan 210 206 nan nan nan nan nan nan nan 210 208 205 206 nan nan nan nan nan nan nan nan 220 217 nan nan nan nan 238 241 nan nan nan nan nan nan nan nan nan nan nan nan nan nan nan nan nan nan nan nan nan nan nan nan nan nan
nan nan nan nan nan nan nan nan nan nan nan nan nan nan nan nan nan nan nan nan nan nan nan nan nan nan nan nan nan nan nan nan nan nan nan nan nan nan nan nan 207 nan 203 nan nan nan nan nan nan nan nan nan nan nan nan nan nan nan nan nan nan nan nan nan nan nan nan nan nan nan nan nan nan nan nan nan nan nan nan nan nan nan nan nan nan nan nan
nan nan nan nan nan nan nan nan nan nan nan nan nan nan nan nan nan nan nan nan nan nan nan nan nan nan nan nan nan nan nan nan nan nan 227 226 nan nan nan nan nan nan nan nan nan nan nan nan nan nan nan nan nan nan nan nan nan nan nan nan nan nan nan nan nan nan nan nan nan nan nan nan nan nan nan nan nan nan nan nan nan nan nan nan nan nan nan
nan nan nan nan nan nan nan nan nan nan nan nan nan nan nan nan nan nan nan nan nan nan nan nan nan nan nan nan nan nan nan nan nan nan nan nan nan nan nan nan nan nan nan nan nan nan nan nan nan nan nan nan nan nan nan nan nan nan nan nan nan nan nan nan nan nan nan nan nan nan nan nan nan nan nan nan nan nan nan nan nan nan nan nan nan nan nan
nan nan nan nan nan nan nan nan nan nan nan nan nan nan nan nan nan nan nan nan nan nan nan nan nan nan nan nan nan nan nan nan nan nan nan nan nan nan nan nan nan nan nan nan nan nan nan 224 226 nan nan nan nan nan nan nan nan nan nan nan nan nan nan nan nan nan nan nan nan nan nan nan nan nan nan nan nan nan nan nan nan nan nan nan nan nan nan
nan nan nan nan nan nan nan nan nan nan nan nan nan nan nan nan nan nan nan nan nan nan nan nan nan nan nan nan nan nan nan nan nan nan nan nan nan nan nan nan nan nan nan nan nan nan nan nan nan nan nan nan nan nan nan nan nan nan nan nan nan nan nan nan nan nan nan nan nan nan nan nan nan nan nan nan nan nan nan nan nan nan nan nan nan nan nan
nan nan nan nan nan nan nan nan nan nan nan nan nan nan nan nan nan nan nan nan nan nan nan nan nan nan nan nan nan nan nan nan nan nan nan nan nan nan nan nan nan nan nan nan nan nan nan nan nan nan nan nan nan nan nan nan nan nan nan nan nan nan nan nan nan nan nan nan nan nan nan nan nan nan nan nan nan nan nan nan nan nan nan nan nan nan nan
nan nan nan nan nan nan nan nan nan nan nan nan nan nan nan nan nan nan nan nan nan nan nan nan nan nan nan nan nan nan nan nan nan nan nan nan nan nan nan nan nan nan nan nan nan nan nan nan nan nan nan nan nan nan nan nan nan nan nan nan nan nan nan nan nan nan nan nan nan nan nan nan nan nan nan nan nan nan nan nan nan nan nan nan nan nan nan
nan nan nan nan nan nan nan nan nan nan nan nan nan nan nan nan nan nan nan nan nan nan nan nan nan nan nan nan nan nan nan nan nan nan nan nan nan nan nan nan nan nan nan nan nan nan nan nan nan nan nan nan nan nan nan nan nan nan nan nan nan nan nan nan nan nan nan nan nan nan nan nan nan nan nan nan nan nan nan nan nan nan nan nan nan nan nan
nan nan nan nan nan nan nan nan nan nan nan nan nan nan nan nan nan nan nan nan nan nan nan nan nan nan nan nan nan nan nan nan nan nan nan nan nan nan nan nan nan nan nan nan nan nan nan nan nan nan nan nan nan nan nan nan nan nan nan nan nan nan nan nan nan nan nan nan nan nan nan nan nan nan nan nan nan nan nan nan nan nan nan nan nan nan nan
nan nan nan nan nan nan nan nan nan nan nan nan nan nan nan nan nan nan nan nan nan nan nan nan nan nan nan nan nan nan nan nan nan nan nan nan nan nan nan nan nan nan nan nan nan nan nan nan nan nan nan nan nan nan nan nan nan nan nan nan nan nan nan nan nan nan nan nan nan nan nan nan nan nan nan nan nan nan nan nan nan nan nan nan nan nan nan
nan nan nan nan nan nan nan nan nan nan nan nan nan nan nan nan nan nan nan nan nan nan nan nan nan nan nan nan nan nan nan nan nan nan nan nan nan nan nan nan nan nan nan nan nan nan nan nan nan nan nan nan nan nan nan nan nan nan nan nan nan nan nan nan nan nan nan nan nan nan nan nan nan nan nan nan nan nan nan nan nan nan nan nan nan nan nan